Zurück zum Katalog

THORAD DELTA 1 DEB

AktivSSO
NORAD 8406·DEBRIS·🇺🇸 United States

Gestartet Nov 15, 1974 von Vandenberg Space Force Base

Loading…

Nächste Überflüge (nächste 24 Stunden)

TLE

AktuellSource: Space-Track

Epoche: Sep 13, 2026, 12:12 UTC

1 08406U 74089CJ  26256.50900499  .00000073  00000-0  68359-3 0  9997
2 08406 101.2966 111.8353 0021140   8.8334  62.2777 12.57925165373143

Verfolge THORAD DELTA 1 DEB in Echtzeit mit AllMySat

Download on the App Store